STARLINK-1800, 46700

Orbit data source: Space-Track

STARLINK-1800, 46700 is a payload satellite owned by SpaceX/Seattle (US) in LEO that was launched on Sun, 18 Oct 2020 UTC via an FALCON 9 launch vehicle from the Air Force Eastern Test Range (AFETR). Payload-class satellites include a variety of spacecraft equipped with specific instruments for various scientific and technological missions. These include communications satellites like Starlink; space stations such as the ISS; scientific satellites like the Hubble; Earth observation satellites from companies like Planet Labs, Umbra, and HawkEye 360; GPS; miniature CubeSats for education and research; and military/defense satellites.

Loading next visibility...
Identifier
46700, 2020-073AG
Orbit
LEO
Last TLE update
18 hours ago
Origin
Manufacturer
SpaceX/Seattle
Mission
Operational Commercial Communications
Bus & Motor
STARLINK, Unknown motor
Mass
260 kg wet, ~248 kg dry
Launch date (UTC)
2020-10-18 (5 years ago)
Launch vehicle
FALCON 9
Launch site
Air Force Eastern Test Range (AFETR)
Object type
Payload
Rocket body
Debris
Shape & HBR
Box + 1 Pan, 8.86 m
Radar Cross Section
13.562 m², Large (>1 m²)

Expand to show TLE details & history

TLE from 18 hours ago
0 STARLINK-1800
1 46700U 20073AG  25128.46588118  .00000408  00000-0  46295-4 0  9990
2 46700  53.0549 186.8220 0001514  97.4400 262.6761 15.06384049251397
Epoch: 2025-05-08T11:10Z
Definitive object data (Epoch: 2025-05-08T11:10:52.133Z)
Latitude
-0.00005°
Longitude
152.56876°
Altitude
548.273 km
Speed
7.589 km/s
True Right ascension
12h 27m 17s
True Declination
0° 00' 00"
Sunlit
Object was in full shadow at TLE epoch
Visualization TLE readout
Latitude
46.41335°
Longitude
-158.96947°
Altitude
551.398 km
Speed
7.592 km/s
Apparent Right ascension
20h 32m 02s
Apparent Declination
16° 11' 55"
Sunlit
Object is in full shadow
Visualization observer readout
Local Sidereal Time
13:07:33
Azimuth
64.045° ENE
Elevation
-4.958°
Doppler factor
1
Orbital elements
Apogee altitude
548.58 km
Perigee altitude
546.483 km
Semi-major axis
6,925.668 km
Eccentricity
0.0001514
Inclination
53.0549°
RAAN
186.822°
Arg. of periapsis
97.44°
True anomaly
262.65889°
Mean anomaly
262.6761°
Eccentric anomaly
262.6675°
Mean motion
3.76574 °/min
BSTAR
0.000046295
Orbital period
95.6 mins
Loading maneuver chart data...
Loading SW <> Apogee altitude chart data...
Loading historical data...
Loading historical data...
Loading historical data...
Loading historical data...
Loading historical data...
Loading historical data...
Loading historical data...

STARLINK-1800 Visibility forecast

Observer location: undefined°, undefined°

Span
Click to sort rows by Start time (UTC) header in descending order
Start Az.
Max El. time (UTC)
Max El. Az.
Max El.
End time (UTC)
End Az.
7 mins2025-05-09 06:27:57.370Z222.863° SW2025-05-09 06:30:57.370Z174.486° S43.937°2025-05-09 06:34:57.370Z53.004° ENE
5 mins2025-05-09 08:08:57.370Z296.166° NW2025-05-09 08:10:57.370Z334.356° NNW21.225°2025-05-09 08:13:57.370Z26.618° NE
4 mins2025-05-09 11:30:57.370Z348.74° N2025-05-09 11:32:57.370Z26.137° NE18.243°2025-05-09 11:34:57.370Z59.51° ENE
6 mins2025-05-09 13:09:57.370Z314.676° NW2025-05-09 13:12:57.370Z76.441° E43.625°2025-05-09 13:15:57.370Z123.843° SE
|